This is the latest recevied weather packets stored in our database for station/object WB3EGK. If no packets are shown the sender has not sent any weather packets the latest 1 day(s).
| Time | Temp. | Humidity | Pressure | Rain* | Wind** | Luminosity | Snow |
|---|---|---|---|---|---|---|---|
| 1778079530 | 7.78° C | 1% | 1007.3 hPa | 0 mm | - | 209 W/m² | - |
| 1778079226 | 7.78° C | 1% | 1007.2 hPa | 0 mm | - | 169 W/m² | - |
| 1778078924 | 7.78° C | 1% | 1007.1 hPa | 0 mm | - | 78 W/m² | - |
| 1778078319 | 7.78° C | 1% | 1006.8 hPa | 0 mm | - | 143 W/m² | - |
| 1778077714 | 7.78° C | 1% | 1006.9 hPa | 0 mm | - | 92 W/m² | - |
| 1778075899 | 7.78° C | 1% | 1006.7 hPa | 0 mm | - | 66 W/m² | - |
| 1778075292 | 7.78° C | 1% | 1006.8 hPa | 0 mm | - | 67 W/m² | - |
| 1778074685 | 7.78° C | 1% | 1006.5 hPa | 0 mm | - | 82 W/m² | - |
| 1778074079 | 7.78° C | 1% | 1006.2 hPa | 0 mm | - | 104 W/m² | - |
| 1778073776 | 7.78° C | 1% | 1006 hPa | 0 mm | - | 130 W/m² | - |
| 1778071052 | 7.22° C | 1% | 1005.8 hPa | 0 mm | - | 51 W/m² | - |
| 1778069843 | 7.22° C | 1% | 1005.5 hPa | 0 mm | - | 77 W/m² | - |
| 1778069539 | 7.22° C | 1% | 1005.2 hPa | 0 mm | - | 50 W/m² | - |
| 1778068934 | 7.22° C | 1% | 1005.9 hPa | 0 mm | - | 34 W/m² | - |
| 1778068632 | 7.22° C | 1% | 1006.1 hPa | 1.78 mm | - | 29 W/m² | - |
| 1778068027 | 7.22° C | 1% | 1005.8 hPa | 0 mm | - | 21 W/m² | - |
| 1778067423 | 7.22° C | 1% | 1005.7 hPa | 0 mm | - | 10 W/m² | - |
| 1778067120 | 7.22° C | 1% | 1005.4 hPa | 0 mm | - | 14 W/m² | - |
| 1778066816 | 7.22° C | 1% | 1005.4 hPa | 0 mm | - | 21 W/m² | - |
| 1778066514 | 7.22° C | 1% | 1004.9 hPa | 0 mm | - | 21 W/m² | - |
| 1778066211 | 7.22° C | 1% | 1004.9 hPa | 0 mm | - | 29 W/m² | - |
| 1778065606 | 7.22° C | 1% | 1004.7 hPa | 1.27 mm | - | 23 W/m² | - |
| 1778064395 | 7.22° C | 1% | 1004.9 hPa | 1.78 mm | - | 3 W/m² | - |
| 1778063789 | 7.22° C | 1% | 1005.1 hPa | 3.05 mm | - | 2 W/m² | - |
| 1778063486 | 7.22° C | 1% | 1005.2 hPa | 1.78 mm | - | 0 W/m² | - |
* Rain latest hour (hover to see other rain measurements)
** Current wind speed in m/s (hover to see current wind gust speed)